#timestamp,LO_Frequency,Hit,StdDev 
1590656415.9,286047002.1,N
1590656435.7,286047000.2,N
1590656455.5,286047004.4,N
1590656475.4,286047003.3,N
1590656495.2,286047003.2,N
1590656515.0,286047001.8,N
1590656516.0,286047001.8,N
1590656535.8,286047001.6,N
1590656555.6,286047002.1,N
1590656575.5,286047002.8,N
1590656595.3,286047001.9,N
1590656615.1,286047000.1,N
1590656635.9,286047004.0,N
1590656655.7,286047003.8,N
1590656675.6,286047004.3,N
1590656695.4,286047002.2,N
1590656715.2,286047004.2,N
1590656735.1,286047003.0,N
1590656736.0,286047003.0,N
1590656755.8,286047003.6,N
1590656775.7,286047005.0,Y
1590656795.5,286047001.3,P
1590656815.3,286047000.5,N
1590656835.2,286047000.9,N
1590656855.0,286047000.1,N
1590656855.9,286047000.1,N
1590656875.7,286047000.1,N
1590656895.6,286047004.3,Y
1590656915.4,286047002.8,P
1590656935.3,286047001.2,N
1590656955.1,286047003.8,P
1590656975.8,286047001.5,N
1590656995.7,286047001.8,N
1590657015.5,286047000.1,N
1590657035.4,286046998.3,N
1590657055.2,286047001.0,N
1590657075.0,286047000.8,N
1590657075.9,286047000.8,N
1590657095.8,286047001.0,N
1590657115.6,286047001.3,N
1590657135.5,286046999.8,N
1590657155.3,286046998.3,N
1590657175.1,286046999.8,N
1590657195.9,286047001.5,N
1590657215.7,286046999.7,N
1590657235.5,286047003.1,N
1590657255.4,286047001.4,N
1590657275.2,286047002.6,N
1590657295.1,286046998.7,N
1590657296.0,286046998.7,N
1590657315.8,286047000.6,N
1590657335.6,286046999.8,N
1590657355.5,286047002.0,N
1590657375.3,286047002.0,N
1590657395.1,286047003.9,N
1590657415.9,286047002.6,N
1590657435.7,286047002.7,N
1590657455.6,286047000.1,N
1590657475.4,286046999.4,N
1590657495.2,286047000.5,N
1590657515.1,286047002.8,N
1590657516.0,286047002.8,N
1590657535.8,286047002.7,N
1590657555.7,286047001.0,N
1590657575.5,286047001.2,N
1590657595.3,286047000.8,N
1590657615.2,286047000.3,N
1590657635.0,286047002.4,N
1590657635.9,286047002.4,N
1590657655.8,286047002.4,N
1590657675.6,286047003.0,N
1590657695.4,286047000.1,N
1590657715.3,286047000.6,N
1590657735.1,286047001.3,N
1590657755.9,286047004.4,Y
1590657775.7,286047000.4,P
1590657795.5,286046998.6,N
1590657815.4,286047002.5,N
1590657835.2,286047004.1,N
1590657855.0,286047001.9,N
1590657855.9,286047001.9,N
1590657875.8,286047002.5,N
1590657895.6,286047001.0,N
1590657915.5,286047002.1,N
1590657935.3,286047000.0,N
1590657955.1,286047002.1,N
1590657975.9,286046999.8,N
1590657995.7,286046998.5,N
1590658015.5,286046999.5,N
1590658035.4,286046998.9,N
1590658055.2,286046998.6,N
1590658075.1,286047001.1,N
1590658076.0,286047001.1,N
1590658095.8,286046998.8,N
1590658115.6,286046998.8,N
1590658135.5,286046998.7,N
1590658155.3,286047000.8,N
1590658175.2,286047002.5,N
1590658195.9,286047001.1,N
1590658215.7,286046998.7,N
1590658235.6,286047002.4,N
1590658255.4,286047000.5,N
1590658275.2,286047002.7,N
1590658295.1,286047002.4,N
1590658296.0,286047002.4,N
1590658315.8,286047000.4,N
1590658335.7,286047001.2,N
1590658355.5,286046998.2,N
1590658375.3,286046998.3,N
1590658395.2,286047002.6,N
1590658415.0,286046999.7,N
1590658415.9,286046999.7,N
1590658435.8,286047000.1,N
1590658455.6,286046999.2,N
1590658475.4,286046999.1,N
1590658495.3,286047000.3,N
1590658515.1,286046998.9,N
1590658535.8,286046996.8,N
1590658555.7,286046998.5,N
1590658575.5,286046999.6,N
1590658595.4,286046999.3,N
1590658615.2,286046996.9,N
1590658635.0,286046996.7,N
1590658635.9,286046996.7,N
1590658655.8,286046998.7,N
1590658675.6,286046998.6,N
1590658695.5,286047001.0,N
1590658715.3,286047002.8,N
1590658735.1,286047000.7,N
1590658755.9,286047001.6,N
1590658775.7,286047002.6,N
1590658795.5,286047000.8,N
1590658815.4,286046997.3,N
1590658835.2,286046997.4,N
1590658855.1,286046998.7,N
1590658856.0,286046998.7,N
1590658875.8,286046997.1,N
1590658895.6,286046997.6,N
1590658915.5,286046996.5,N
1590658935.3,286046999.4,N
1590658955.2,286046997.9,N
1590658975.9,286046998.7,N
1590658995.7,286046997.7,N
1590659015.6,286046997.2,N
1590659035.4,286046997.9,N
1590659055.2,286046995.1,N
1590659075.1,286046993.3,Y
1590659076.0,286046993.3,P
1590659095.8,286046995.6,N
1590659115.7,286046997.6,N
1590659135.5,286046996.5,N
1590659155.3,286046998.0,N
1590659175.2,286046995.8,N
1590659195.0,286046997.6,N
1590659195.9,286046997.6,N
1590659215.8,286046998.7,N
1590659235.6,286046994.9,Y
1590659255.4,286046998.1,P
1590659275.3,286046998.7,N
1590659295.1,286046998.6,N
1590659315.9,286046998.4,N
1590659335.7,286046998.1,Y
1590659355.5,286047001.8,P
1590659375.4,286047002.1,N
1590659395.2,286047002.9,N
1590659415.0,286047005.4,N
1590659415.9,286047005.4,N
1590659435.8,286047001.3,N
1590659455.6,286047003.9,N
1590659475.5,286047004.0,N
1590659495.3,286047001.3,N
1590659515.1,286047003.1,N
1590659535.9,286047003.0,N
1590659555.7,286047004.0,N
1590659575.6,286047002.0,N
1590659595.4,286047003.2,N
1590659615.2,286047003.1,N
1590659635.1,286047004.8,N
1590659636.0,286047004.8,N
1590659655.8,286047005.4,Y
1590659675.6,286047000.6,P
1590659695.5,286046998.7,N
1590659715.3,286046998.5,N
1590659735.2,286047002.7,N
1590659755.9,286047002.4,N
1590659775.7,286047003.7,N
1590659795.6,286047003.9,N
1590659815.4,286047001.3,N
1590659835.3,286047002.3,N
1590659855.1,286047001.7,N
1590659856.0,286047001.7,N
1590659875.8,286047002.6,N
1590659895.7,286047001.6,N
1590659915.5,286046999.7,N
1590659935.3,286047000.0,N
1590659955.2,286047000.6,N
1590659975.0,286047000.6,N
1590659975.9,286047000.6,N
1590659995.8,286046999.7,N
